Regional Weather Roundup
Issued by NWS

Home | Current Version | Previous Version | Graphics & Text | Print | Product List | Glossary On
Versions: 1 2 3 4 5 6 7 8 9 10 11 12 13 14 15 16 17 18 19 20 21 22 23 24 25 26 27 28 29 30 31 32 33 34 35 36 37 38 39 40 41 42 43 44 45 46 47 48 49 50
000
ASUS45 KCYS 020410
RWRWY

WYOMING REGIONAL WEATHER ROUNDUP
NATIONAL WEATHER SERVICE CHEYENNE WY
1000 PM MDT TUE SEP 01 2015

NOTE:  "FAIR" INDICATES FEW OR NO CLOUDS BELOW 12,000 FEET
WITH NO SIGNIFICANT WEATHER AND/OR OBSTRUCTIONS TO VISIBILITY.

WYZ001-020500-
YELLOWSTONE NATIONAL PARK

CITY           SKY/WX    TMP DP  RH WIND       PRES   REMARKS
LK YELLOWSTONE   N/A     48  30  49 NW3       30.18S
W YELLOWSTONE  NOT AVBL

$$
WYZ002>013-054>058-071-098>099-020500-
NORTHERN WYOMING

CITY           SKY/WX    TMP DP  RH WIND       PRES   REMARKS
JACKSON        FAIR      57  36  44 E3        30.08R
CODY           FAIR      73  28  19 SW9       29.94R
GREYBULL       FAIR      77  33  20 CALM      29.82R
WORLAND        FAIR      77  40  26 SW13      29.86R
SHERIDAN       FAIR      63  43  48 CALM      29.85R
BUFFALO        FAIR      72  29  20 W8        29.95R
GILLETTE       FAIR      62  36  37 SW6       29.91R
HULETT         FAIR      70  46  43 SE6       29.93S
NEWCASTLE        N/A     77  27  15 E9        29.92S

$$
WYZ014>020-022>026-101>103-020500-
CENTRAL WYOMING

CITY           SKY/WX    TMP DP  RH WIND       PRES   REMARKS
BIG PINEY      FAIR      56  32  40 NW7       30.16R
PINEDALE       MOCLDY    59  37  44 CALM      30.17R
DUBOIS         FAIR      59  30  33 CALM      30.14R
LANDER         FAIR      75  38  26 SW16G24   30.00R
RIVERTON       FAIR      74  38  27 SW12      30.01R
CASPER         FAIR      70  39  32 S9        30.03S
DOUGLAS        FAIR      77  36  22 CALM      30.01R

$$
WYZ021-027>030-104>119-020500-
SOUTHERN WYOMING

CITY           SKY/WX    TMP DP  RH WIND       PRES   REMARKS
EVANSTON       MOCLDY    66  36  32 S8        30.18R
KEMMERER       FAIR      63  32  31 SE5       30.18S
FORT BRIDGER   PTCLDY    66  41  39 S9        30.20R
ROCK SPRINGS   FAIR      63  44  50 S7        30.17R
DIXON          FAIR      60  46  60 E6        30.25S
RAWLINS        FAIR      66  37  34 S12       30.20S
SARATOGA       FAIR      59  43  55 S17       30.23F
LARAMIE        FAIR      56  42  59 VRB6      30.24R
CHEYENNE       FAIR      68  39  34 W15       30.13R
TORRINGTON     FAIR      72  48  42 W7        29.95
PINE BLUFFS    FAIR      64  37  36 W5        30.05S

$$


USA.gov is the U.S. government's official web portal to all federal, state and local government web resources and services.